AirNav   Pilot Hours Calculator
 
 1570 users online  

U98 Idaho City USFS Airport
Idaho City, Idaho, USA

GOING TO IDAHO CITY?


FAA INFORMATION EFFECTIVE 08 OCTOBER 2020

Location

FAA Identifier: U98
Lat/Long: 43-49-14.6150N 115-51-03.3940W
43-49.243583N 115-51.056567W
43.8207264,-115.8509428
(estimated)
Elevation: 3920 ft. / 1195 m (estimated)
Variation: 17E (1985)
From city: 1 mile SW of IDAHO CITY, ID
Time zone: UTC -6 (UTC -7 during Standard Time)
Zip code: 83631

Airport Operations

Airport use: Open to the public
Activation date: 11/1948
Control tower: no
ARTCC: SALT LAKE CITY CENTER
FSS: BOISE FLIGHT SERVICE STATION
NOTAMs facility: BOI (NOTAM-D service available)
Attendance: UNATNDD
Wind indicator: yes
Segmented circle: yes

Airport Communications

CTAF: 122.9

Nearby radio navigation aids

VOR radial/distance  VOR name  Freq  Var
BOIr026/21.9BOISE VORTAC113.3017E

Airport Services

Airframe service: NONE
Powerplant service: NONE
Bottled oxygen: NONE
Bulk oxygen: NONE

Runway Information

Runway 4/22

Dimensions: 3400 x 50 ft. / 1036 x 15 m
Surface: gravel/dirt, in good condition
Runway edge markings: 04/22 EDGES & THRS MARKED WITH WHITE ROCK.
Operational restrictions: RECOMMEND LAND RY 04; TKOFF RY 22; WHEN WIND CONDITIONS PERMIT.
RUNWAY 4  RUNWAY 22
Traffic pattern: leftleft
Obstructions: 65 ft. trees, 50 ft. from runway, 90 ft. left of centerline, 1:1 slope to clear55 ft. trees, 110 ft. left of centerline

Airport Ownership and Management from official FAA records

Ownership: Publicly-owned
Owner: US FOREST SERVICE
324 25TH ST
OGDEN, UT 84401
Phone 801-625-5511
Manager: CHRIS BOLDMAN- AV OFCR. BOISE NF
3833 HIGHWAY 21 OR P.O. BOX 129
IDAHO CITY, ID 83763
Phone (208) 392-6681

Airport Operational Statistics

Aircraft operations: avg 38/week *
75% transient general aviation
20% air taxi
5% military
* for 12-month period ending 30 June 2019

Additional Remarks

A52 NMRS ADDNL TREES/OBSTNS ON APCHS TO RWY 04 & 22.
NO WINTER MAINTENANCE.
USFS HELICOPTER OPNS DURING FIRE SEASON.
NO TELEPHONE AVBL AT ARPT.
WEST 700 FT OF RY IS TURF; REMAINDER IS GRVL.
FOR CD CTC BIG SKY APCH AT 208-364-5860/5861.

Instrument Procedures

There are no published instrument procedures at U98.

Some nearby airports with instrument procedures:

KBOI - Boise Air Terminal/Gowen Field (22 nm SW)
KMAN - Nampa Municipal Airport (33 nm SW)
KEUL - Caldwell Industrial Airport (36 nm W)
U76 - Mountain Home Municipal Airport (42 nm S)
KMUO - Mountain Home Air Force Base (47 nm S)
 
Loc | Ops | Rwys | IFR | FBO | Links
Com | Nav | Svcs | Stats | Notes
Area around U98 (Idaho City USFS Airport)
 
Road maps at: MapQuest Bing Google
 
Aerial photo
WARNING: Photo may not be current or correct
Aerial photo of U98 (Idaho City USFS Airport)
Photo by Bob Christensen
Photo taken 20-May-2012
looking north.

Do you have a better or more recent aerial photo of Idaho City USFS Airport that you would like to share? If so, please send us your photo.

 
Sectional chart

 
Airport distance calculator
Flying to Idaho City USFS Airport? Find the distance to fly.

From to U98

Sunrise and sunset
Times for 20-Oct-2020
 Local
(UTC-6)
 Zulu
(UTC)
Morning civil twilight07:3713:37
Sunrise08:0614:06
Sunset18:5000:50
Evening civil twilight19:1901:19

Current date and time
Zulu (UTC)  20-Oct-2020 20:05:58
Local (UTC-6)  20-Oct-2020 14:05:58
 
METAR
KBOI 
23nm SW 
201953Z 29007KT 8SM CLR 15/04 A3008 RMK AO2 SLP177 T01500039
KMAN 
33nm SW 
201955Z AUTO 33008KT 10SM CLR 16/04 A3009 RMK A01
KEUL 
35nm W 
201956Z AUTO 30007KT 10SM CLR 16/04 A3008 RMK AO2 SLP186 T01610044
KSNT 
45nm NE 
201951Z AUTO A3007 RMK AO1 SLPNO PNO $
TAF
KBOI 
23nm SW 
201720Z 2018/2118 31008KT P6SM SCT080 BKN200 FM210300 VRB05KT P6SM SCT080 BKN200 FM211000 14005KT P6SM BKN060
NOTAMs
Click for the latest NOTAMs
NOTAMs are issued by the DoD/FAA and will open in a separate window not controlled by AirNav.

 

 
 

Would you like to see your business listed on this page?

 If your business provides an interesting product or service to pilots, flight crews, aircraft, or users of the Idaho City USFS Airport, you should consider listing it here.  To start the listing process, click on the button below
 
Add a business
 

Other Pages about Idaho City USFS Airport

Update a link
 
Copyright © AirNav, LLC. All rights reserved. Privacy Policy  Contact